When you browse on this site, cookies collect data to enhance your experience and personalize the content and advertising you see.
Visit our Privacy Policy to learn more. By continuing to use the site, you agree to this use of cookies and data.
  • In Hungary
  • List of Countries
  • For 7 days
  • Water Temperature
  • Weather Map
  • News
  • Weather Widgets
  • user-avatar
    Login

    Hourly Weather Amneville

    Today, 8 April, Wednesday

    Time Temperature Precipitation Wind Pressure Humidity
    00:00 +13°C° 0 mm 2 mps 753 mmHg 69%
    01:00 +12°C° 0 mm 1 mps 753 mmHg 71%
    02:00 +12°C° 0 mm 1 mps 753 mmHg 73%
    03:00 +11°C° 0 mm 1 mps 752 mmHg 75%
    04:00 +11°C° 0 mm 1 mps 752 mmHg 76%
    05:00 +11°C° 0 mm 1 mps 753 mmHg 77%
    06:00 +11°C° 0 mm 1 mps 753 mmHg 78%
    07:00 +13°C° 0 mm 1 mps 753 mmHg 72%
    08:00 +15°C° 0 mm 2 mps 752 mmHg 66%
    09:00 +17°C° 0 mm 2 mps 752 mmHg 60%
    10:00 +18°C° 0 mm 2 mps 752 mmHg 55%
    11:00 +20°C° 0 mm 2 mps 752 mmHg 51%
    12:00 +21°C° 0 mm 2 mps 752 mmHg 47%
    13:00 +22°C° 0 mm 1 mps 752 mmHg 44%
    14:00 +23°C° 0 mm 1 mps 751 mmHg 42%
    15:00 +21°C° 0 mm 0 mps 751 mmHg 39%
    16:00 +21°C° 0 mm 1 mps 751 mmHg 44%
    17:00 +20°C° 0 mm 1 mps 750 mmHg 50%
    18:00 +18°C° 0 mm 1 mps 750 mmHg 55%
    19:00 +16°C° 0 mm 1 mps 751 mmHg 55%
    20:00 +15°C° 0 mm 0 mps 751 mmHg 56%
    21:00 +14°C° 0 mm 0 mps 751 mmHg 56%
    22:00 +13°C° 0 mm 0 mps 751 mmHg 57%
    23:00 +13°C° 0 mm 0 mps 751 mmHg 59%

    Tomorrow, 9 April, Thursday

    Time Temperature Precipitation Wind Pressure Humidity
    00:00 +12°C° 0 mm 0 mps 751 mmHg 60%
    01:00 +12°C° 0 mm 0 mps 751 mmHg 62%
    02:00 +11°C° 0 mm 0 mps 751 mmHg 63%
    03:00 +11°C° 0 mm 0 mps 751 mmHg 64%
    04:00 +11°C° 0 mm 0 mps 751 mmHg 65%
    05:00 +11°C° 0 mm 0 mps 751 mmHg 66%
    06:00 +12°C° 0 mm 0 mps 751 mmHg 67%
    07:00 +14°C° 0 mm 0 mps 751 mmHg 63%
    08:00 +15°C° 0 mm 0 mps 752 mmHg 59%
    09:00 +19°C° 0 mm 1 mps 752 mmHg 54%
    10:00 +20°C° 0 mm 1 mps 752 mmHg 50%
    11:00 +22°C° 0 mm 1 mps 752 mmHg 47%
    12:00 +23°C° 0 mm 1 mps 752 mmHg 43%
    13:00 +23°C° 0 mm 1 mps 751 mmHg 44%
    14:00 +22°C° 0 mm 1 mps 751 mmHg 44%
    15:00 +21°C° 0 mm 2 mps 751 mmHg 45%
    16:00 +21°C° 0 mm 1 mps 751 mmHg 50%
    17:00 +20°C° 0 mm 1 mps 751 mmHg 54%
    18:00 +18°C° 0 mm 1 mps 751 mmHg 59%
    19:00 +16°C° 0 mm 1 mps 751 mmHg 62%
    20:00 +15°C° 0 mm 2 mps 752 mmHg 66%
    21:00 +14°C° 0 mm 2 mps 752 mmHg 69%
    22:00 +14°C° 0 mm 2 mps 752 mmHg 73%
    23:00 +13°C° 0 mm 2 mps 752 mmHg 77%

    Day after tomorrow, 10 April, Friday

    Time Temperature Precipitation Wind Pressure Humidity
    00:00 +13°C° 0 mm 2 mps 752 mmHg 81%
    01:00 +12°C° 0 mm 2 mps 752 mmHg 84%
    02:00 +12°C° 0 mm 2 mps 752 mmHg 86%
    03:00 +10°C° 0 mm 2 mps 752 mmHg 89%
    04:00 +10°C° 0 mm 2 mps 752 mmHg 89%
    05:00 +10°C° 0 mm 2 mps 752 mmHg 88%
    06:00 +12°C° 0 mm 2 mps 752 mmHg 88%
    07:00 +13°C° 0 mm 2 mps 752 mmHg 81%
    08:00 +15°C° 0 mm 2 mps 752 mmHg 74%
    09:00 +17°C° 0 mm 3 mps 752 mmHg 68%
    10:00 +18°C° 0 mm 3 mps 752 mmHg 63%
    11:00 +20°C° 0 mm 3 mps 752 mmHg 58%
    12:00 +21°C° 0 mm 2 mps 752 mmHg 53%
    13:00 +21°C° 0 mm 3 mps 751 mmHg 51%
    14:00 +21°C° 0 mm 3 mps 751 mmHg 50%
    15:00 +21°C° 0 mm 3 mps 751 mmHg 48%
    16:00 +20°C° 0 mm 3 mps 750 mmHg 54%
    17:00 +18°C° 0 mm 3 mps 750 mmHg 59%
    18:00 +16°C° 0 mm 2 mps 750 mmHg 65%
    19:00 +15°C° 0 mm 2 mps 750 mmHg 67%
    20:00 +14°C° 0 mm 2 mps 751 mmHg 68%
    21:00 +13°C° 0 mm 2 mps 751 mmHg 70%
    22:00 +13°C° 0 mm 2 mps 751 mmHg 71%
    23:00 +12°C° 0 mm 2 mps 751 mmHg 73%

    11 April, Saturday

    Time Temperature Precipitation Wind Pressure Humidity
    00:00 +10°C° 0 mm 2 mps 751 mmHg 74%
    01:00 +10°C° 0 mm 2 mps 751 mmHg 76%
    02:00 +11°C° 0 mm 1 mps 751 mmHg 77%
    03:00 +10°C° 0 mm 1 mps 751 mmHg 78%
    04:00 +10°C° 0 mm 1 mps 751 mmHg 79%
    05:00 +10°C° 0 mm 1 mps 751 mmHg 79%
    06:00 +11°C° 0 mm 1 mps 751 mmHg 79%
    07:00 +13°C° 0 mm 2 mps 751 mmHg 73%
    08:00 +15°C° 0 mm 2 mps 751 mmHg 67%
    09:00 +17°C° 0 mm 2 mps 751 mmHg 61%
    10:00 +18°C° 0 mm 2 mps 750 mmHg 56%
    11:00 +20°C° 0 mm 2 mps 750 mmHg 51%
    12:00 +22°C° 0 mm 1 mps 750 mmHg 46%
    13:00 +22°C° 0 mm 1 mps 750 mmHg 45%
    14:00 +22°C° 0 mm 1 mps 749 mmHg 43%
    15:00 +22°C° 0 mm 1 mps 749 mmHg 42%
    16:00 +21°C° 0 mm 1 mps 749 mmHg 48%
    17:00 +19°C° 0 mm 1 mps 748 mmHg 53%
    18:00 +18°C° 0 mm 1 mps 748 mmHg 59%
    19:00 +15°C° 0 mm 0 mps 748 mmHg 61%
    20:00 +14°C° 0 mm 0 mps 748 mmHg 64%
    21:00 +13°C° 0 mm 0 mps 749 mmHg 66%
    22:00 +12°C° 0 mm 0 mps 748 mmHg 68%
    23:00 +12°C° 0 mm 0 mps 748 mmHg 70%

    12 April, Sunday

    Time Temperature Precipitation Wind Pressure Humidity
    00:00 +11°C° 0 mm 0 mps 748 mmHg 73%
    01:00 +11°C° 0 mm 0 mps 748 mmHg 73%
    02:00 +11°C° 0 mm 0 mps 747 mmHg 73%
    03:00 +11°C° 0 mm 0 mps 747 mmHg 73%
    04:00 +11°C° 0 mm 0 mps 747 mmHg 73%
    05:00 +12°C° 0 mm 0 mps 747 mmHg 73%
    06:00 +12°C° 0 mm 0 mps 747 mmHg 73%
    07:00 +15°C° 0 mm 1 mps 746 mmHg 69%
    08:00 +16°C° 0 mm 1 mps 746 mmHg 65%
    09:00 +18°C° 0 mm 2 mps 746 mmHg 62%
    10:00 +19°C° 0.1 mm 2 mps 745 mmHg 59%
    11:00 +19°C° 0.1 mm 3 mps 744 mmHg 57%
    12:00 +20°C° 0.1 mm 3 mps 744 mmHg 55%
    13:00 +20°C° 0.1 mm 3 mps 743 mmHg 55%
    14:00 +20°C° 0.1 mm 3 mps 742 mmHg 55%
    15:00 +20°C° 0.1 mm 3 mps 742 mmHg 56%
    16:00 +19°C° 0.4 mm 2 mps 741 mmHg 61%
    17:00 +17°C° 0.4 mm 2 mps 741 mmHg 66%
    18:00 +16°C° 0.4 mm 2 mps 741 mmHg 72%
    19:00 +15°C° 0.1 mm 2 mps 741 mmHg 74%
    20:00 +15°C° 0.1 mm 2 mps 741 mmHg 77%
    21:00 +14°C° 0.1 mm 2 mps 740 mmHg 80%
    22:00 +13°C° 0 mm 2 mps 740 mmHg 82%
    23:00 +13°C° 0 mm 2 mps 740 mmHg 84%

    13 April, Monday

    Time Temperature Precipitation Wind Pressure Humidity
    00:00 +12°C° 0 mm 2 mps 740 mmHg 87%
    01:00 +12°C° 0 mm 2 mps 740 mmHg 87%
    02:00 +12°C° 0 mm 2 mps 740 mmHg 87%
    03:00 +12°C° 0 mm 2 mps 740 mmHg 87%
    04:00 +12°C° 0.1 mm 2 mps 741 mmHg 88%
    05:00 +12°C° 0.1 mm 2 mps 741 mmHg 88%
    06:00 +12°C° 0.1 mm 2 mps 741 mmHg 89%
    07:00 +12°C° 0.2 mm 2 mps 742 mmHg 89%
    08:00 +12°C° 0.2 mm 3 mps 742 mmHg 88%
    09:00 +12°C° 0.2 mm 3 mps 743 mmHg 88%
    10:00 +13°C° 0.2 mm 4 mps 743 mmHg 85%
    11:00 +14°C° 0.2 mm 4 mps 743 mmHg 81%
    12:00 +14°C° 0.2 mm 5 mps 744 mmHg 77%
    13:00 +14°C° 0.2 mm 5 mps 744 mmHg 78%
    14:00 +13°C° 0.2 mm 5 mps 744 mmHg 78%
    15:00 +13°C° 0.2 mm 5 mps 744 mmHg 79%
    16:00 +12°C° 0.1 mm 5 mps 744 mmHg 78%
    17:00 +9°C° 0.1 mm 6 mps 745 mmHg 78%
    18:00 +8°C° 0.1 mm 6 mps 745 mmHg 77%
    19:00 +6°C° 0 mm 5 mps 746 mmHg 76%
    20:00 +3°C° 0 mm 5 mps 748 mmHg 75%
    21:00 +2°C° 0 mm 5 mps 749 mmHg 74%
    22:00 +1°C° 0 mm 4 mps 749 mmHg 73%
    23:00 0°C° 0 mm 4 mps 750 mmHg 71%
    Show more